Погода в Старгарде

Польша     53°20′25″N   15°02′22″E
темп.,
°C
ветер,
м/с
пор.,
м/с
влажн.,
%
обл.,
%
осадки,
мм/ч
давл.,
гПа
погр.,
м
1 марта, пн
пн101:00+2з339576 0.0 103560
04:00+1з22969 0.0 103422
07:00+1зюз22965 0.0 103526
10:00+5з34822 0.0 1035340
13:00+9зюз34693 0.0 1035523
16:00+9з34740 0.0 1034538
19:00+5з23880 0.0 103526
22:00+4з23920 0.0 103528
2 марта, вт
вт201:00+3з23930 0.0 103533
04:00+2з23930 0.0 103338
07:00+1з33930 0.0 103448
10:00+6зсз34740 0.0 1034269
13:00+10зсз34580 0.0 1034515
16:00+11сз23610 0.0 1033374
19:00+5с12770 0.0 103322
22:00+3св12820 0.0 103322
3 марта, ср
ср301:00+2юв12850 0.0 103322
04:00+2ююв12860 0.0 103022
07:00+2ю22870 0.0 103022
10:00+7ю23720 0.0 1028257
13:00+11ююз34600 0.0 1026547
16:00+11юз36640 0.0 1023622
19:00+7юз47830 0.0 1022113
22:00+6зюз49900 0.0 1020206
4 марта, чт
чт401:00+4з48930 0.0 1018203
04:00+3з499419 0.0 1016267
07:00+2з499520 0.0 1015277
10:00+5з597835 0.0 1013591
13:00+7зсз687267 0.0 1013895
16:00+5зсз5780100 0.1 1011774
19:00+3ссз4691100 0.3 1012518
22:00+1ссв6984100 0.1 1015884
5 марта, пт
пт501:00−1с4108895 0.1 1016460
04:00−1ссз38800 0.0 1018222
07:00−1сз34770 0.0 1020123
10:00+3ссз575034 0.1 10221554
13:00+4ссз674366 0.6 10231897
16:00+4ссз69460 0.0 10231758
19:000зсз4116313 0.1 1024383
22:00−1зсз49700 0.0 1026255